Temperature
14 15 15 16 13 12 13 14 15 17 17 19 19 19 17 17 18 17 17 17 17 17 16 16 16 16 17 17 17 17 17 16 16 16 16 16 16 16 16 16 16 16 15 15 15 15 15 15 15
14 14 15 15 12 12 13 14 15 17 18 19 18 18 17 16 17 17 17 17 17 17 16 16 16 16 16 16 16 16 16 16 16 16 16 16 16 16 16 16 15 15 15 15 15 15 15 15 15
14 14 14 11 11 12 14 15 15 17 18 18 17 16 16 16 16 16 16 16 16 16 16 16 16 16 16 16 16 16 16 16 16 16 16 15 15 15 15 15 15 15 15 15 15 15 15 15 14
13 14 13 11 12 12 14 14 15 16 17 17 16 15 15 15 15 16 16 16 16 16 16 16 16 16 16 16 16 16 16 15 15 15 15 15 15 15 15 15 15 15 15 15 15 15 15 14 14
13 13 11 11 12 12 13 14 15 15 15 16 15 13 14 15 15 15 15 15 16 15 15 15 15 15 15 15 15 15 15 15 15 15 15 15 15 15 15 15 15 15 15 15 15 14 14 14 14
12 11 10 10 12 12 13 14 15 14 14 15 14 13 13 14 15 15 15 15 15 15 15 15 15 15 15 15 15 15 15 15 14 14 14 14 14 15 15 14 14 15 15 14 14 14 14 14 14
11 9 10 10 11 12 13 14 14 12 12 13 14 12 13 14 14 14 14 14 14 14 15 15 14 14 14 14 14 14 14 14 14 14 14 14 14 14 14 14 14 14 14 14 14 14 14 13 13
11 9 10 10 11 11 12 13 13 13 12 13 13 12 12 13 13 13 13 14 14 14 14 14 14 14 14 14 14 14 14 14 14 14 14 14 14 14 14 14 14 14 14 14 14 14 14 13 13
11 8 9 10 10 11 11 12 12 12 12 12 12 12 13 13 12 13 13 13 13 13 13 13 13 13 14 13 13 13 13 13 13 13 13 14 14 14 14 14 14 14 14 14 14 13 13 13 13
9 7 9 10 10 10 11 11 11 11 10 10 11 12 12 12 12 12 12 12 13 13 12 13 13 13 13 13 13 13 13 13 13 13 13 13 13 13 13 13 13 13 13 13 13 13 13 13 13
8 8 9 10 10 11 10 10 11 10 9 10 10 11 11 11 12 12 12 12 12 12 12 12 12 12 13 13 13 13 13 13 13 13 13 13 13 13 13 13 13 13 13 13 13 13 13 13 12
8 8 9 9 10 10 10 10 10 10 10 10 11 11 11 11 11 11 11 11 12 12 12 12 12 12 12 12 12 12 12 12 12 12 12 12 12 12 12 12 13 13 13 13 13 13 12 12 12
7 8 9 9 9 9 9 9 9 9 10 10 10 10 10 10 10 11 11 11 11 11 11 12 11 11 12 12 12 12 12 12 12 12 12 12 12 12 12 12 12 12 12 12 12 12 12 12 12
7 8 8 8 9 9 8 8 9 8 9 9 10 10 10 10 10 10 10 11 11 11 11 11 11 11 11 11 11 11 11 11 11 12 12 12 12 12 12 12 12 12 12 12 12 12 12 12 11
8 7 7 7 8 8 8 8 8 8 9 9 9 9 10 10 10 10 10 10 10 10 11 11 11 11 11 11 11 11 11 11 11 11 11 11 11 11 11 11 11 11 11 11 11 11 11 11 11
7 6 6 7 7 8 8 7 7 8 8 8 9 9 9 9 9 9 10 10 10 10 10 10 10 10 10 10 10 10 11 11 11 11 11 11 11 11 11 11 11 11 11 11 11 11 11 11 11
5 5 6 6 7 7 7 6 7 8 8 8 8 8 9 9 9 9 9 9 9 9 9 10 10 10 10 10 10 10 10 10 10 10 11 11 11 11 11 11 11 11 11 11 11 11 11 11 11
5 5 5 6 6 7 6 6 6 7 7 7 8 8 8 8 8 9 9 9 9 9 9 9 9 9 9 9 9 10 10 10 10 10 10 10 10 10 10 10 10 10 10 10 11 10 11 11 10
5 5 5 6 6 6 6 6 6 7 7 7 7 7 7 8 8 8 9 9 9 9 9 9 9 9 9 9 9 9 9 9 10 10 10 10 10 10 10 10 10 10 10 10 10 10 10 10 10
5 4 4 5 6 6 5 5 6 6 6 7 7 7 7 7 8 8 8 8 8 8 8 8 8 8 8 8 8 9 9 9 9 9 9 10 10 10 10 10 10 10 10 10 10 10 10 10 9
4 4 4 4 5 5 5 5 6 6 6 6 7 7 7 7 7 7 8 8 8 8 8 8 8 8 8 8 8 8 8 8 9 9 9 9 9 9 10 10 10 10 10 10 10 10 10 9 9
4 5 5 5 4 4 5 5 5 5 5 5 6 6 6 6 7 7 7 7 8 8 8 7 8 8 8 8 8 8 8 8 8 8 9 9 9 9 9 9 9 9 9 9 9 9 9 9 9
4 5 5 5 4 3 4 4 5 5 5 5 5 6 6 6 6 6 6 7 7 7 7 7 7 7 8 8 8 8 8 8 8 8 8 8 8 8 9 9 9 9 9 9 9 9 9 9 9
4 4 4 3 3 3 4 4 4 4 5 5 5 5 5 5 5 6 6 6 7 7 7 7 7 7 7 7 7 7 8 7 7 7 7 7 7 8 8 8 8 8 8 8 8 8 8 8 8
3 3 3 3 3 4 4 4 4 4 5 5 5 5 5 5 5 5 5 6 6 6 6 7 6 6 7 7 7 7 7 7 7 7 7 7 7 7 7 7 7 8 8 8 8 8 8 8 8
3 3 3 3 3 3 4 4 4 4 4 5 5 5 5 5 5 5 5 5 6 6 6 6 6 6 6 6 6 6 6 6 6 6 7 7 7 6 7 7 7 7 7 7 7 7 7 7 7
3 2 2 2 1 2 3 3 4 4 3 3 4 4 4 4 4 4 4 5 5 5 5 6 6 6 6 6 6 6 6 6 6 6 6 6 6 6 6 6 6 6 7 7 7 7 7 7 6
2 2 1 1 2 3 3 3 3 3 3 2 2 3 3 3 4 4 4 4 4 4 5 5 5 5 5 5 5 5 5 5 5 5 5 5 6 6 6 6 6 6 6 6 6 6 6 6 6
2 1 1 1 1 2 3 3 3 3 2 2 2 2 3 3 3 3 3 4 4 4 4 4 4 4 4 4 4 5 5 5 4 5 5 5 5 5 5 5 5 5 5 5 6 6 6 5 5
1 1 0 1 1 0 1 2 3 2 2 2 2 2 2 2 2 3 3 3 3 3 4 4 4 4 4 4 4 4 4 4 4 4 4 4 4 5 5 4 5 5 5 5 5 5 5 5 5
Wind_Speed
12 10 2 3 4 2 4 5 4 2 2 2 0 3 4 3 3 3 1 6 9 9 10 12 12 13 14 14 13 13 13 12 12 12 12 12 12 12 12 12 12 12 11 11 11 11 10 10 10
8 3 4 4 4 4 5 5 5 5 3 1 3 3 3 2 2 4 3 5 10 10 10 11 12 12 13 13 13 13 13 12 12 11 11 11 12 12 12 12 11 11 11 10 10 10 10 9 9
6 1 3 3 4 8 6 4 6 4 2 1 2 3 3 1 2 1 3 7 8 8 10 11 13 12 12 12 12 13 12 12 12 11 11 11 11 11 11 11 11 11 11 10 10 9 9 9 9
3 3 3 2 7 6 4 3 3 2 3 3 3 3 3 3 1 1 6 8 8 6 9 12 13 12 12 11 12 12 12 12 12 11 11 11 11 11 10 10 10 10 10 10 9 9 8 8 8
3 3 2 3 7 4 3 4 2 0 1 2 2 2 2 5 3 6 6 7 8 6 7 11 12 12 12 11 11 11 11 12 12 11 11 11 11 10 10 9 9 10 9 9 9 8 8 7 7
3 3 3 6 7 3 2 3 1 1 1 2 2 3 1 3 5 4 5 6 6 6 6 9 10 11 11 11 11 10 11 11 11 11 11 11 10 10 10 9 8 9 8 8 8 8 7 7 7
3 3 5 5 4 3 2 2 1 0 1 2 0 3 1 3 2 2 4 6 5 5 5 6 7 9 10 11 10 9 9 10 11 11 11 10 10 10 9 8 7 8 8 8 8 7 7 6 7
3 3 3 3 4 3 3 2 1 1 1 2 2 4 3 4 1 3 4 5 5 4 4 4 5 6 7 9 10 9 8 9 10 11 11 10 10 10 9 8 7 7 8 7 7 6 6 6 6
3 2 4 4 4 3 3 2 3 2 1 2 2 2 3 2 2 4 4 3 4 3 2 3 4 4 5 7 8 9 8 8 9 10 11 10 9 9 8 8 7 6 7 7 6 6 5 5 5
3 3 6 3 2 2 2 2 3 2 3 3 3 4 2 2 4 5 5 4 3 2 2 2 2 3 4 5 6 7 7 7 8 9 9 9 8 8 8 8 7 6 6 6 5 5 4 4 5
3 4 3 3 3 2 3 3 2 1 3 4 2 2 1 1 3 3 4 5 5 4 2 2 2 3 3 3 4 4 5 6 6 8 9 8 8 7 7 6 5 4 5 4 4 4 3 3 4
1 2 3 3 3 3 3 3 2 2 5 4 4 4 2 1 3 3 3 3 4 4 3 2 2 2 2 3 3 3 4 4 4 6 8 7 5 5 5 4 4 3 4 4 3 2 3 3 3
2 3 3 3 3 3 3 4 3 5 5 3 2 2 2 3 3 3 3 2 3 4 3 3 2 2 2 3 2 2 3 3 4 4 6 7 5 5 4 4 4 3 4 4 3 2 2 2 2
2 1 3 5 6 3 3 6 3 6 4 2 2 3 4 3 3 1 1 2 2 3 3 3 2 2 2 2 2 2 2 3 4 4 6 7 6 5 5 4 4 3 4 4 4 3 3 2 2
0 2 4 4 5 3 2 6 6 6 3 3 4 4 4 3 2 2 3 3 3 3 2 2 2 1 2 2 2 2 2 3 3 3 5 7 6 6 5 4 3 3 4 5 4 3 3 2 1
1 1 3 4 2 3 2 8 7 4 3 4 5 5 3 4 4 3 2 2 2 2 2 2 1 1 1 1 2 2 2 2 2 2 3 5 6 6 6 4 4 4 4 3 4 3 2 1 1
2 1 4 5 2 1 3 7 7 4 4 5 5 4 3 4 4 4 2 3 3 3 2 2 1 2 1 1 1 2 2 1 1 2 2 3 5 6 5 4 4 5 3 2 4 3 3 2 2
3 3 4 5 3 2 5 9 9 6 5 5 5 4 4 4 5 4 3 3 3 3 3 2 1 1 1 1 1 2 2 1 1 1 1 2 3 4 3 3 4 4 3 2 4 4 2 2 3
3 3 6 8 6 4 7 10 10 7 5 4 4 4 4 5 5 2 1 2 1 2 3 3 2 1 1 1 1 1 0 0 0 1 0 2 2 3 3 2 4 4 4 4 5 4 3 2 2
2 4 6 7 5 5 8 10 9 6 4 4 4 5 5 5 4 2 2 2 3 3 3 4 3 2 1 1 1 1 1 1 1 1 1 1 2 2 2 2 3 4 4 4 4 4 3 2 2
4 5 5 6 7 4 5 6 5 3 2 1 2 3 4 4 5 3 2 3 2 3 3 3 4 3 2 1 0 2 2 0 1 1 1 1 1 2 2 2 2 3 5 5 5 6 5 4 2
5 5 6 6 4 4 2 4 5 4 3 4 5 5 4 3 2 2 2 2 3 3 3 3 3 3 2 2 2 3 2 2 2 1 1 2 0 1 1 1 2 2 3 4 5 5 4 5 4
6 5 6 6 4 4 3 3 6 3 4 6 6 5 4 3 2 3 3 2 2 2 2 2 2 2 2 2 3 4 2 1 1 0 0 1 1 0 1 0 1 1 2 3 4 4 4 4 4
4 2 2 1 1 3 5 4 6 4 5 5 6 5 4 3 3 3 2 1 1 1 1 2 2 2 1 1 2 3 3 2 2 1 0 1 1 0 1 1 0 1 2 3 3 3 4 4 4
2 2 3 4 2 5 3 3 7 6 4 5 5 5 4 2 2 2 2 2 1 1 1 1 2 1 1 1 0 2 3 3 3 2 2 1 1 1 1 0 0 1 1 2 2 2 3 4 4
1 2 2 2 3 4 3 4 5 4 3 2 2 2 1 1 2 2 2 1 1 1 0 0 1 1 1 1 0 1 1 1 1 1 1 1 1 1 0 0 0 0 1 1 2 2 2 2 3
1 0 1 2 2 4 5 5 5 3 5 5 4 3 2 3 2 2 1 1 1 1 1 1 0 0 0 1 1 1 1 1 0 0 0 0 0 0 1 1 0 0 1 1 2 2 2 2 2
2 3 3 2 0 4 5 4 4 5 6 5 5 4 4 3 3 2 2 2 2 1 1 0 1 1 0 0 0 0 1 1 0 0 0 0 0 1 1 1 1 1 1 1 2 2 2 2 1
1 1 1 1 2 2 4 5 2 3 4 4 4 4 3 2 2 2 2 2 1 1 1 1 1 0 0 0 0 1 1 1 1 0 0 0 1 1 1 1 1 1 1 1 2 2 2 3 1
2 3 3 2 3 3 3 6 3 3 3 2 3 3 3 2 2 2 2 2 3 2 2 1 1 1 0 0 0 1 1 1 1 1 1 0 0 0 1 1 1 1 1 1 2 2 2 2 2
Wind_Direction
333 336 23 57 69 76 227 239 240 250 250 261 271 105 120 127 143 160 109 117 118 132 141 146 142 139 136 132 129 126 123 120 118 115 114 113 112 111 113 110 108 108 108 107 105 102 99 100 99
335 344 54 70 125 195 241 229 230 233 226 330 26 56 70 74 66 102 94 123 128 133 138 142 136 135 136 134 132 130 128 126 122 120 117 116 115 111 112 111 109 108 106 105 104 104 102 101 99
333 19 91 105 169 200 212 215 217 244 290 12 30 32 77 93 71 119 146 131 121 127 136 142 138 134 134 134 134 134 133 130 128 125 122 120 116 115 110 113 110 106 104 102 102 103 102 99 95
41 50 65 135 213 221 213 241 221 245 336 25 87 43 13 2 354 130 130 123 122 125 134 143 139 137 132 132 132 137 137 134 132 130 127 123 120 116 114 110 113 111 109 106 104 101 101 100 97
61 91 118 215 230 233 247 290 306 232 304 349 70 96 340 336 41 91 111 121 128 129 133 143 142 141 138 133 134 135 137 139 137 133 130 127 124 119 117 110 116 115 113 112 111 107 103 102 102
62 90 154 217 230 239 263 293 301 1 294 349 61 113 235 338 52 93 108 107 120 127 132 141 142 143 141 139 136 138 139 144 142 136 133 131 128 126 122 121 117 119 118 116 113 108 107 103 104
112 130 187 208 227 250 271 297 214 28 345 316 17 121 206 321 11 100 111 105 105 114 119 129 140 143 146 142 141 137 142 145 145 141 137 135 133 131 126 131 122 126 126 122 117 112 106 106 104
124 118 195 215 211 235 308 334 14 31 293 334 60 139 210 262 312 96 98 96 98 94 105 112 118 130 141 146 144 142 138 143 145 143 139 136 135 135 132 136 128 134 134 128 122 116 111 102 99
88 122 210 215 205 233 321 344 332 334 79 14 9 213 240 208 105 99 98 78 89 85 85 113 114 116 127 145 149 144 144 145 144 144 140 136 134 134 134 138 134 133 137 134 130 123 117 103 96
99 186 218 223 212 218 303 303 312 351 355 344 351 353 7 123 128 130 145 144 133 126 107 101 109 127 123 136 142 146 148 146 146 145 144 140 138 138 138 140 140 138 140 136 133 126 117 98 94
133 192 225 271 284 272 284 299 319 196 268 247 235 275 30 132 149 158 172 174 172 173 156 147 129 131 127 125 139 142 145 145 146 149 150 147 141 139 136 132 136 138 138 128 125 113 106 104 112
164 258 238 267 289 292 289 293 302 256 249 252 219 206 194 217 211 191 190 195 180 173 168 161 147 138 138 130 142 153 148 147 149 163 157 153 148 146 144 138 138 136 144 135 128 121 117 108 127
239 262 273 272 295 285 299 284 263 277 270 269 221 196 218 229 249 221 199 193 169 172 175 173 158 160 156 142 144 139 156 155 158 162 165 160 162 166 157 152 154 154 156 150 149 149 139 123 124
204 279 296 290 284 290 285 281 266 269 271 253 226 215 230 240 251 242 192 160 181 181 181 182 176 159 156 158 157 147 148 155 152 159 170 166 161 160 158 160 162 171 174 167 160 162 155 143 134
230 335 325 298 266 267 297 292 254 252 246 244 251 241 240 254 261 229 219 185 187 195 178 178 181 145 150 155 161 145 150 150 153 165 173 166 160 160 156 160 164 182 174 163 148 141 130 134 131
9 5 296 295 268 261 218 263 271 245 228 252 259 258 254 261 265 249 223 209 195 183 169 168 181 161 156 144 153 131 139 134 147 152 166 168 161 162 162 162 173 175 163 158 156 151 144 152 156
8 267 259 287 278 265 220 261 277 265 242 252 253 250 247 261 280 272 233 213 210 194 177 176 163 168 165 117 121 131 118 117 135 144 151 160 158 163 165 171 176 169 155 161 167 161 161 166 176
247 259 260 269 275 272 264 269 282 280 253 246 245 247 249 257 273 266 250 231 218 202 182 174 160 163 153 113 103 102 89 71 67 87 146 145 146 160 157 170 170 159 157 174 167 161 161 170 174
234 260 269 271 275 276 259 271 279 276 265 253 248 254 259 266 274 248 245 242 222 187 176 168 150 139 160 163 159 133 172 304 351 12 104 128 134 148 145 166 168 164 173 186 171 159 155 149 136
255 277 278 282 283 272 265 270 269 254 236 234 239 244 262 275 283 282 275 238 202 198 183 172 175 168 187 227 235 179 168 263 260 299 319 146 146 147 134 158 175 176 174 177 170 156 158 160 149
273 246 257 270 302 285 278 280 261 258 247 286 276 260 274 255 252 254 263 242 205 194 188 194 190 183 180 160 87 118 109 54 353 317 317 304 168 147 133 162 166 177 182 184 181 175 168 176 186
265 253 261 273 296 289 270 276 267 235 264 270 271 270 269 275 274 272 277 257 208 198 185 188 187 180 159 144 188 172 174 195 250 255 272 312 200 136 139 151 159 162 169 183 191 184 179 170 181
247 265 265 265 251 280 263 231 274 228 258 271 269 268 271 277 267 268 273 266 226 186 166 159 152 139 155 168 196 183 174 179 163 109 80 330 333 75 109 127 135 142 156 173 188 181 175 179 182
268 312 318 345 111 265 246 218 273 247 242 260 266 267 274 276 271 277 293 317 352 98 126 115 119 101 126 179 183 162 155 147 136 118 191 290 295 330 15 25 106 160 155 168 180 189 183 185 182
36 62 12 356 336 254 259 231 253 257 252 243 251 258 267 271 267 294 316 337 355 36 97 120 127 113 109 84 145 156 155 161 169 173 202 217 235 255 252 23 144 179 163 168 163 165 190 183 178
310 136 153 235 259 289 300 245 261 272 310 310 276 269 300 292 276 265 269 273 275 266 256 57 125 126 118 124 199 113 128 158 181 187 203 214 224 248 216 44 70 128 140 158 155 158 163 171 168
92 170 194 156 308 287 274 277 304 346 358 354 341 351 342 325 305 284 292 305 282 251 240 203 169 224 164 159 151 131 108 102 167 206 334 210 196 64 83 83 55 51 115 138 136 160 138 129 142
136 149 86 110 261 286 294 285 293 316 321 331 339 338 325 325 319 313 315 322 298 268 270 244 180 210 230 125 138 141 112 94 129 140 192 167 103 68 88 114 96 61 83 106 118 130 123 119 126
55 88 112 150 184 211 286 281 274 270 291 301 308 317 315 308 304 306 314 313 318 337 343 5 3 59 46 26 236 104 91 83 63 77 335 146 109 109 133 159 143 138 120 113 126 123 125 134 142
185 183 155 167 257 222 242 273 307 300 307 306 311 324 324 310 302 302 312 336 357 346 346 4 351 7 293 212 153 87 83 84 70 4 341 27 102 100 116 140 132 122 107 118 131 138 128 145 152
Height
1510 1511 1513 1515 1519 1527 1527 1521 1513 1510 1508 1507 1506 1506 1507 1510 1513 1518 1514 1512 1513 1515 1517 1519 1520 1522 1523 1524 1525 1526 1527 1528 1529 1530 1530 1531 1532 1532 1533 1533 1534 1534 1534 1534 1535 1535 1535 1535 1535
1509 1511 1513 1514 1523 1530 1526 1516 1512 1507 1506 1506 1506 1506 1507 1509 1510 1511 1511 1512 1514 1515 1517 1518 1520 1522 1523 1524 1525 1526 1527 1528 1529 1529 1530 1531 1531 1532 1532 1533 1533 1534 1534 1534 1535 1535 1535 1535 1535
1509 1510 1513 1515 1522 1522 1518 1511 1508 1506 1505 1505 1506 1507 1509 1510 1510 1511 1511 1512 1514 1515 1516 1518 1520 1521 1522 1523 1525 1526 1526 1527 1528 1529 1530 1530 1531 1531 1532 1532 1533 1533 1534 1534 1534 1534 1535 1535 1535
1508 1511 1513 1518 1517 1514 1511 1508 1506 1505 1504 1505 1506 1508 1510 1512 1511 1511 1511 1512 1513 1515 1516 1518 1519 1521 1522 1523 1524 1525 1526 1527 1528 1528 1529 1530 1530 1531 1531 1531 1532 1533 1533 1534 1534 1534 1534 1535 1535
1508 1509 1515 1518 1514 1511 1508 1506 1506 1505 1506 1506 1506 1508 1510 1511 1511 1511 1511 1512 1513 1514 1516 1517 1519 1520 1521 1522 1523 1524 1525 1526 1527 1528 1528 1529 1529 1530 1530 1531 1532 1532 1533 1533 1533 1534 1534 1534 1535
1508 1509 1518 1518 1512 1509 1507 1507 1506 1506 1506 1506 1507 1508 1509 1510 1510 1510 1511 1512 1513 1514 1515 1517 1518 1519 1520 1521 1522 1524 1524 1525 1526 1527 1527 1528 1528 1529 1529 1530 1531 1531 1532 1532 1533 1533 1533 1534 1534
1508 1511 1514 1513 1512 1510 1508 1507 1507 1506 1506 1507 1507 1508 1509 1509 1510 1510 1510 1511 1513 1514 1515 1516 1517 1518 1519 1520 1521 1522 1523 1524 1525 1526 1526 1527 1527 1528 1528 1529 1529 1530 1531 1531 1532 1532 1533 1533 1533
1506 1510 1512 1513 1511 1510 1508 1507 1507 1506 1506 1507 1507 1507 1508 1508 1509 1509 1510 1511 1512 1513 1514 1515 1516 1517 1518 1519 1520 1521 1522 1523 1524 1524 1525 1526 1526 1527 1527 1528 1528 1529 1530 1530 1531 1531 1532 1532 1532
1506 1514 1513 1511 1510 1509 1507 1507 1507 1507 1506 1506 1506 1506 1506 1507 1508 1508 1508 1510 1511 1512 1513 1514 1514 1515 1516 1517 1518 1519 1520 1521 1522 1523 1524 1524 1525 1525 1526 1526 1527 1528 1529 1529 1530 1530 1530 1531 1531
1507 1513 1510 1508 1508 1508 1507 1507 1507 1506 1505 1504 1504 1504 1505 1505 1505 1506 1506 1507 1508 1509 1511 1512 1513 1514 1515 1515 1516 1517 1518 1519 1520 1521 1522 1522 1523 1524 1525 1525 1526 1527 1527 1528 1528 1529 1529 1530 1530
1507 1509 1508 1507 1507 1507 1506 1506 1506 1506 1505 1504 1504 1503 1504 1504 1504 1504 1504 1505 1506 1508 1509 1510 1511 1512 1512 1513 1514 1515 1516 1517 1517 1518 1519 1520 1521 1522 1523 1523 1525 1525 1526 1526 1527 1527 1527 1528 1528
1507 1507 1507 1507 1506 1506 1506 1505 1505 1504 1504 1503 1503 1502 1502 1502 1503 1502 1502 1503 1504 1505 1506 1507 1508 1510 1511 1511 1511 1512 1513 1514 1515 1516 1517 1518 1519 1520 1520 1521 1522 1523 1524 1524 1525 1525 1526 1526 1527
1507 1507 1506 1506 1505 1505 1504 1504 1503 1502 1501 1501 1501 1500 1500 1500 1501 1501 1501 1501 1502 1503 1504 1505 1506 1507 1508 1509 1509 1510 1511 1511 1512 1513 1515 1515 1516 1517 1518 1519 1520 1521 1521 1522 1523 1524 1524 1524 1525
1507 1506 1506 1505 1504 1503 1503 1502 1502 1499 1500 1499 1498 1498 1498 1498 1498 1498 1498 1498 1499 1500 1501 1502 1503 1504 1505 1506 1506 1507 1508 1509 1510 1510 1512 1513 1514 1515 1516 1517 1518 1519 1519 1520 1521 1522 1522 1523 1523
1506 1506 1506 1504 1503 1503 1503 1501 1499 1498 1498 1497 1496 1495 1495 1495 1495 1495 1495 1495 1496 1497 1498 1499 1500 1502 1502 1503 1503 1504 1505 1506 1507 1508 1509 1510 1511 1512 1513 1515 1516 1517 1517 1518 1519 1519 1520 1520 1521
1506 1508 1509 1505 1502 1502 1505 1502 1497 1496 1495 1494 1493 1492 1492 1492 1492 1493 1493 1493 1493 1494 1495 1496 1497 1498 1499 1500 1501 1501 1502 1504 1504 1505 1506 1507 1508 1509 1511 1512 1513 1514 1515 1516 1516 1517 1517 1518 1518
1511 1513 1510 1506 1502 1501 1503 1500 1494 1494 1493 1492 1491 1490 1490 1490 1489 1490 1490 1490 1490 1491 1492 1493 1494 1495 1496 1497 1498 1498 1499 1500 1501 1502 1503 1504 1505 1507 1508 1508 1510 1511 1511 1512 1513 1514 1515 1515 1516
1515 1513 1510 1507 1502 1501 1501 1498 1492 1492 1491 1489 1488 1488 1487 1487 1486 1487 1487 1487 1487 1488 1489 1489 1491 1492 1492 1494 1495 1495 1495 1496 1498 1499 1500 1501 1502 1503 1504 1505 1507 1508 1509 1509 1510 1511 1512 1513 1513
1511 1511 1510 1505 1501 1502 1499 1495 1491 1489 1488 1486 1485 1485 1484 1484 1484 1484 1484 1484 1484 1484 1485 1485 1486 1488 1489 1490 1490 1490 1491 1492 1494 1495 1496 1497 1499 1500 1501 1502 1503 1504 1506 1506 1507 1507 1509 1509 1510
1510 1511 1510 1504 1500 1500 1497 1492 1488 1486 1485 1485 1484 1483 1482 1481 1480 1480 1481 1481 1481 1481 1481 1482 1483 1485 1485 1487 1488 1488 1488 1489 1491 1492 1493 1494 1495 1496 1497 1498 1499 1501 1502 1503 1503 1504 1505 1506 1507
1510 1510 1508 1506 1501 1498 1497 1491 1486 1484 1483 1482 1482 1481 1480 1479 1478 1477 1477 1477 1477 1477 1478 1479 1480 1482 1482 1484 1484 1486 1487 1488 1488 1488 1489 1490 1491 1492 1493 1495 1496 1497 1498 1498 1499 1501 1502 1503 1504
1509 1505 1504 1503 1505 1504 1500 1497 1485 1483 1482 1480 1479 1478 1477 1477 1476 1475 1474 1474 1474 1474 1475 1476 1477 1478 1479 1480 1481 1481 1482 1483 1484 1485 1485 1486 1487 1489 1490 1491 1492 1493 1494 1495 1496 1497 1499 1500 1501
1506 1503 1502 1502 1504 1505 1500 1500 1487 1482 1480 1478 1477 1475 1474 1475 1473 1473 1473 1472 1471 1472 1472 1473 1474 1475 1476 1478 1479 1479 1479 1480 1482 1482 1483 1483 1483 1485 1486 1488 1489 1490 1491 1492 1493 1494 1496 1497 1498
1503 1503 1502 1504 1506 1506 1497 1498 1489 1483 1478 1475 1474 1473 1472 1472 1472 1471 1471 1470 1469 1470 1470 1471 1472 1473 1474 1475 1475 1475 1476 1477 1478 1478 1479 1480 1481 1481 1483 1484 1485 1487 1488 1489 1491 1491 1492 1494 1495
1505 1509 1512 1511 1511 1503 1493 1494 1487 1477 1474 1473 1472 1471 1470 1470 1470 1469 1469 1468 1468 1468 1469 1469 1470 1471 1472 1472 1473 1473 1473 1474 1475 1476 1477 1477 1478 1478 1480 1481 1482 1483 1485 1486 1488 1488 1489 1490 1491
1508 1510 1515 1514 1509 1501 1494 1491 1483 1475 1473 1472 1471 1470 1469 1469 1468 1468 1468 1467 1467 1467 1467 1467 1468 1468 1469 1470 1471 1471 1471 1472 1472 1473 1474 1475 1475 1476 1476 1477 1478 1480 1482 1483 1484 1485 1485 1486 1487
1509 1512 1511 1515 1516 1510 1495 1488 1480 1474 1473 1472 1471 1469 1468 1467 1467 1467 1467 1466 1466 1465 1465 1466 1466 1466 1467 1467 1468 1468 1469 1469 1470 1471 1471 1472 1473 1473 1474 1475 1476 1478 1479 1480 1481 1482 1482 1484 1485
1509 1510 1515 1517 1516 1505 1495 1490 1485 1478 1476 1473 1471 1469 1467 1467 1467 1466 1465 1465 1464 1464 1464 1464 1465 1465 1465 1465 1465 1465 1465 1467 1468 1468 1468 1469 1470 1470 1471 1472 1474 1475 1476 1477 1478 1479 1479 1481 1482
1511 1513 1514 1516 1516 1512 1504 1491 1481 1478 1475 1474 1472 1469 1468 1467 1467 1466 1465 1464 1464 1463 1463 1463 1463 1462 1462 1463 1463 1462 1463 1465 1465 1466 1466 1466 1467 1468 1469 1470 1471 1472 1473 1474 1475 1476 1477 1479 1480
1511 1512 1514 1516 1516 1515 1512 1496 1479 1478 1475 1473 1471 1470 1468 1467 1466 1465 1464 1463 1462 1462 1461 1461 1460 1460 1460 1461 1461 1461 1461 1462 1463 1463 1464 1464 1464 1465 1466 1467 1468 1469 1470 1471 1472 1474 1475 1476 1477